Burlington, IA

12:25 AM CDT on August 24, 2017 (GMT -0500)
Burlington Regional

Weather History for KBRL - April, 2013

Change the Weather History Date:

Monday, April 8, 2013

  Actual Average Record
Temperature  
Mean Temperature 64 °F 51 °F  
Max Temperature 74 °F 62 °F 84 °F (2001)
Min Temperature 54 °F 40 °F 17 °F (1972)
Degree Days  
Heating Degree Days 1 14  
Month to date heating degree days 137 124  
Since 1 July heating degree days 5463 5230  
Cooling Degree Days 0 0  
Month to date cooling degree days 0 0  
Year to date cooling degree days 0 2  
Growing Degree Days 13 (Base 50)    
Moisture  
Dew Point 55 °F    
Average Humidity 81    
Maximum Humidity 100    
Minimum Humidity 61    
Precipitation  
Precipitation 0.67 in 0.11 in 1.26 in (2008)
Month to date precipitation 0.69 0.82  
Year to date precipitation 6.61 6.47  
Sea Level Pressure  
Sea Level Pressure 29.71 in    
Wind  
Wind Speed 8 mph (SSE)    
Max Wind Speed 30 mph    
Max Gust Speed 39 mph    
Visibility 8 miles    
Events Rain , Thunderstorm    
T = Trace of Precipitation, MM = Missing Value Source: NWS Daily Summary

Daily Weather History Graph

Daily Weather History Graph

Search for Another Location

Airport or City:

Trip Planner

Search our weather history database for the weather conditions in past years. The results will help you decide how hot, cold, wet, or windy it might be!

Date:

Astronomy

Apr. 08, 2013 Rise Set
Actual Time 6:36 AM CDT 7:36 PM CDT
Civil Twilight 6:08 AM CDT 8:05 PM CDT
Nautical Twilight 5:34 AM CDT 8:38 PM CDT
Astronomical Twilight 5:00 AM CDT 9:13 PM CDT
Moon 5:27 AM CDT (4/8) 6:11 PM CDT (4/8)
Length of Visible Light 13h 56m
Length of Day
13h 00m
Waning Crescent, 3% of the Moon is Illuminated
Apr 8
Waning Crescent
Apr 10
New
Apr 18
First Quarter
Apr 25
Full
May 2
Last Quarter

Hourly Weather History & Observations

Time (CDT) Temp. Dew Point Humidity Pressure Visibility Wind Dir Wind Speed Gust Speed Precip Events Conditions
12:53 AM 59.0 °F 46.0 °F 62% 29.73 in 7.0 mi SSE 8.1 mph - 0.00 in Rain Light Rain
12:59 AM 55.4 °F 48.2 °F 77% 29.74 in 2.5 mi South 9.2 mph - 0.00 in Rain , Thunderstorm Heavy Rain
1:04 AM 55.4 °F 48.2 °F 77% 29.73 in 3.0 mi SSE 9.2 mph - 0.00 in Rain , Thunderstorm Rain
1:17 AM 55.4 °F 51.8 °F 88% 29.72 in 10.0 mi SSE 8.1 mph - 0.00 in Rain Light Rain
1:53 AM 55.9 °F 52.0 °F 87% 29.72 in 7.0 mi SSE 6.9 mph - 0.01 in Rain Light Rain
2:18 AM 55.4 °F 53.6 °F 94% 29.71 in 4.0 mi SE 5.8 mph - N/A Rain Heavy Rain
2:28 AM 53.6 °F 53.6 °F 100% 29.69 in 4.0 mi SE 5.8 mph - N/A Rain , Thunderstorm Rain
2:42 AM 53.6 °F 53.6 °F 100% 29.67 in 3.0 mi East 6.9 mph - N/A Rain Heavy Rain
2:53 AM 54.0 °F 53.1 °F 97% 29.66 in 3.0 mi ESE 8.1 mph - N/A Rain Rain
3:08 AM 53.6 °F 53.6 °F 100% 29.63 in 2.0 mi East 8.1 mph - 0.01 in Rain Heavy Rain
3:19 AM 55.4 °F 55.4 °F 100% 29.61 in 2.0 mi East 10.4 mph - 0.01 in Rain , Thunderstorm Rain
3:29 AM 55.4 °F 55.4 °F 100% 29.58 in 1.2 mi East 10.4 mph - 0.02 in Rain , Thunderstorm Heavy Rain
3:31 AM 55.4 °F 55.4 °F 100% 29.58 in 1.2 mi East 9.2 mph - 0.02 in Rain Rain
3:39 AM 55.4 °F 55.4 °F 100% 29.56 in 1.5 mi East 11.5 mph - 0.02 in Rain Rain
3:48 AM 57.2 °F 55.4 °F 94% 29.57 in 2.5 mi ESE 10.4 mph - 0.02 in Rain Light Rain
3:53 AM 57.0 °F 57.0 °F 100% 29.57 in 4.0 mi SE 10.4 mph - 0.03 in Rain Light Rain
4:18 AM 59.0 °F 57.2 °F 94% 29.56 in 9.0 mi South 16.1 mph 26.5 mph 0.01 in   Overcast
4:53 AM 59.0 °F 55.0 °F 87% 29.55 in 10.0 mi SW 21.9 mph 32.2 mph 0.02 in   Overcast
5:53 AM 57.0 °F 54.0 °F 89% 29.61 in 10.0 mi West 17.3 mph 29.9 mph 0.01 in   Overcast
6:53 AM 55.9 °F 53.1 °F 90% 29.68 in 10.0 mi WNW 9.2 mph 19.6 mph 0.01 in   Overcast
7:08 AM 55.4 °F 53.6 °F 94% 29.70 in 10.0 mi WNW 9.2 mph - N/A   Overcast
7:30 AM 55.4 °F 53.6 °F 94% 29.71 in 10.0 mi West 8.1 mph - N/A   Overcast
7:53 AM 55.9 °F 53.1 °F 90% 29.72 in 10.0 mi West 5.8 mph - 0.01 in   Overcast
8:39 AM 57.2 °F 55.4 °F 94% 29.73 in 10.0 mi WSW 9.2 mph - N/A   Overcast
8:53 AM 57.0 °F 55.0 °F 93% 29.74 in 10.0 mi WSW 10.4 mph - 0.01 in   Overcast
9:23 AM 57.2 °F 55.4 °F 94% 29.74 in 10.0 mi SW 9.2 mph - N/A   Overcast
9:53 AM 60.1 °F 55.0 °F 83% 29.74 in 10.0 mi SW 10.4 mph - N/A   Mostly Cloudy
10:31 AM 60.8 °F 55.4 °F 82% 29.76 in 10.0 mi SW 9.2 mph - 0.57 in   Scattered Clouds
10:53 AM 62.1 °F 55.0 °F 78% 29.76 in 10.0 mi WSW 8.1 mph - 0.57 in   Partly Cloudy
11:53 AM 64.9 °F 55.9 °F 73% 29.77 in 10.0 mi SW 9.2 mph - N/A   Clear
12:53 PM 69.1 °F 55.9 °F 63% 29.76 in 10.0 mi Variable 6.9 mph - N/A   Clear
1:53 PM 69.1 °F 55.9 °F 63% 29.75 in 10.0 mi WSW 4.6 mph - N/A   Partly Cloudy
2:53 PM 70.0 °F 55.0 °F 59% 29.75 in 10.0 mi Variable 3.5 mph - N/A   Mostly Cloudy
3:53 PM 73.9 °F 59.0 °F 59% 29.75 in 10.0 mi SSW 8.1 mph 17.3 mph N/A   Overcast
4:53 PM 72.0 °F 57.0 °F 59% 29.76 in 10.0 mi South 8.1 mph - N/A   Partly Cloudy
5:53 PM 70.0 °F 59.0 °F 68% 29.77 in 10.0 mi South 6.9 mph - N/A   Clear
6:53 PM 69.1 °F 57.9 °F 68% 29.78 in 10.0 mi SSE 4.6 mph - N/A   Clear
7:53 PM 66.0 °F 57.9 °F 75% 29.80 in 10.0 mi ESE 3.5 mph - N/A   Clear
8:53 PM 66.0 °F 57.0 °F 73% 29.82 in 10.0 mi ESE 4.6 mph - N/A   Scattered Clouds
9:53 PM 64.9 °F 57.9 °F 78% 29.83 in 10.0 mi East 5.8 mph - N/A   Scattered Clouds
10:53 PM 64.9 °F 57.9 °F 78% 29.83 in 10.0 mi East 4.6 mph - N/A   Overcast
11:53 PM 64.0 °F 57.0 °F 78% 29.82 in 10.0 mi East 6.9 mph - N/A   Mostly Cloudy